Location: Fort Worth, Tx
(32.7431°N, 97.3695°W)
Time: 21:25:07
(UTC-05:00)

Tiros 1 - Pass Details

Date: 09 October 2024
Orbit: 622 x 654 km, 48.4° (Epoch: 05 November)

Event Time Altitude Azimuth Distance (km) Brightness Sun altitude
Rises 13:04:08 0° 317° (NW) 2,911 10.1 47.0°
Reaches altitude 10° 13:07:17 10° 339° (NNW) 1,997 9.4 47.3°
Maximum altitude 13:10:08 16° 18° (NNE) 1,631 9.1 47.6°
Drops below altitude 10° 13:12:58 10° 57° (ENE) 1,988 9.7 47.8°
Sets 13:16:06 0° 79° (ENE) 2,890 10.6 48.1°
